FW7828 Weather Reports


time (UTC)temp
F
wind
direction
speed
knots
gust
knots
rain 1hr
in
rain 24hr
in
rain mn
in
humidity
%
barometer
mb
20260507210836 54 4 0.9 0.9 0.00 0.82 0.82 96 1007.5
20260507210333 53 24 0.9 1.7 0.07 0.82 0.82 96 1007.7
20260507205829 54 354 2.6 2.6 0.07 0.82 0.82 96 1007.4
20260507205326 53 13 0.9 1.7 0.07 0.82 0.82 96 1007.6
20260507204822 53 355 1.7 2.6 0.00 0.81 0.81 96 1007.6
20260507204320 53 346 1.7 2.6 0.05 0.81 0.81 96 1007.3
20260507203818 54 357 0.9 0.9 0.05 0.81 0.81 96 1007.2
20260507203315 54 27 0.9 0.9 0.00 0.80 0.80 96 1007.2
20260507202811 54 9 0.9 1.7 0.00 0.80 0.80 96 1006.9
20260507202308 54 21 1.7 2.6 0.07 0.80 0.80 96 1007.0
20260507201803 54 352 0.0 0.9 0.12 0.80 0.80 96 1007.2
20260507201259 54 9 0.9 0.9 0.12 0.79 0.79 96 1007.1
20260507200755 54 10 1.7 2.6 0.00 0.77 0.77 96 1007.6
20260507200251 54 15 1.7 1.7 0.00 0.77 0.77 96 1007.3
20260507195748 54 17 0.0 0.9 0.00 0.77 0.77 96 1007.1
20260507195245 54 7 1.7 2.6 0.00 0.77 0.77 96 1007.2
20260507194743 55 345 2.6 2.6 0.00 0.77 0.77 96 1007.2
20260507194238 55 1 0.9 0.9 0.00 0.77 0.77 96 1007.0
20260507193735 55 6 1.7 1.7 0.00 0.77 0.77 96 1007.2
20260507193231 55 17 0.9 0.9 0.00 0.77 0.77 96 1007.1
20260507192728 55 11 2.6 2.6 0.00 0.77 0.77 96 1006.8
20260507192225 56 358 2.6 2.6 0.00 0.77 0.77 96 1006.9
20260507191721 56 17 0.0 0.9 0.05 0.77 0.77 96 1006.8
20260507191218 56 8 0.0 0.0 0.05 0.77 0.77 96 1007.1
20260507190714 56 34 1.7 2.6 0.07 0.76 0.76 96 1007.0
20260507181259 56 286 0.9 0.9 0.00 0.73 0.73 96 1008.2
20260507180756 56 286 0.9 0.9 0.00 0.73 0.73 96 1008.2
20260507180253 56 308 0.0 0.0 0.00 0.73 0.73 96 1008.3
20260507175748 56 8 0.9 1.7 0.00 0.73 0.73 96 1007.9
20260507175245 56 16 0.9 0.9 0.00 0.73 0.73 96 1008.1
20260507174743 56 13 0.0 0.0 0.00 0.73 0.73 96 1008.2
20260507174241 56 34 1.7 2.6 0.07 0.73 0.73 95 1008.4
20260507173738 56 355 3.5 5.2 0.07 0.73 0.73 95 1007.9
20260507173235 56 2 0.9 1.7 0.12 0.72 0.72 95 1008.4
20260507172731 57 1 1.7 1.7 0.17 0.72 0.72 95 1008.7
20260507172223 56 1 1.7 2.6 0.17 0.70 0.70 95 1008.5
20260507171722 56 317 2.6 2.6 0.19 0.69 0.69 95 1008.6
20260507171220 56 3 0.9 1.7 0.31 0.67 0.67 95 1008.8
20260507170717 56 10 2.6 2.6 0.47 0.66 0.66 95 1008.8
20260507170214 56 18 0.9 0.9 0.42 0.62 0.62 95 1009.0
20260507165709 57 17 2.6 4.3 0.28 0.57 0.57 94 1009.1
20260507165206 57 354 2.6 4.3 0.54 0.55 0.55 94 1008.8
20260507164702 57 355 0.9 1.7 0.66 0.52 0.52 94 1008.8
20260507164159 57 24 0.9 1.7 0.83 0.46 0.46 94 1009.1
20260507163656 57 14 2.6 2.6 1.02 0.41 0.41 93 1008.9
20260507163154 58 359 1.7 1.7 0.97 0.32 0.32 93 1009.0
20260507162649 59 8 3.5 4.3 0.59 0.25 0.25 93 1009.1
20260507162146 61 335 1.7 2.6 0.24 0.16 0.16 93 1008.7
20260507161642 63 7 2.6 4.3 0.12 0.14 0.14 92 1008.5
20260507161139 67 28 0.9 1.7 0.00 0.12 0.12 93 1008.8
20260507160635 69 22 0.9 0.9 0.00 0.12 0.12 94 1008.4
20260507160132 69 144 0.0 0.0 0.00 0.12 0.12 94 1008.3
20260507155628 69 63 0.0 0.0 0.00 0.12 0.12 93 1008.3
20260507155125 69 258 0.0 0.0 0.00 0.12 0.12 94 1008.3
20260507154621 70 109 0.0 0.0 0.00 0.12 0.12 93 1007.9
20260507154119 69 272 0.0 0.0 0.00 0.12 0.12 94 1007.8
20260507153615 69 160 0.0 0.0 0.00 0.12 0.12 94 1007.9
20260507153112 69 340 0.0 0.0 0.00 0.12 0.12 94 1007.9
20260507152607 69 251 0.0 0.0 0.00 0.12 0.12 94 1008.0
20260507152058 69 257 0.0 0.0 0.00 0.12 0.12 94 1008.0
20260507151554 69 11 0.0 0.0 0.00 0.12 0.12 94 1008.1
20260507151051 69 249 0.0 0.0 0.00 0.12 0.12 94 1008.0
20260507150549 69 354 0.0 0.0 0.00 0.12 0.12 94 1008.0
20260507150045 69 297 0.0 0.0 0.00 0.12 0.12 94 1007.7
20260507145540 69 21 0.0 0.0 0.00 0.12 0.12 94 1007.8
20260507145038 69 52 0.0 0.0 0.00 0.12 0.12 94 1007.7
20260507144534 69 314 0.0 0.0 0.00 0.12 0.12 94 1007.9
20260507144032 69 319 0.0 0.0 0.00 0.12 0.12 94 1007.9
20260507143529 69 216 0.0 0.0 0.00 0.12 0.12 94 1007.9
20260507143026 69 314 0.0 0.0 0.00 0.12 0.12 94 1007.8
20260507142522 69 321 0.0 0.0 0.00 0.12 0.12 94 1007.7
20260507142019 69 328 0.0 0.0 0.00 0.12 0.12 95 1008.0
20260507141515 69 288 0.0 0.0 0.00 0.12 0.12 95 1008.3
20260507141012 69 111 0.0 0.0 0.00 0.12 0.12 94 1008.1
20260507140508 69 72 0.0 0.0 0.00 0.12 0.12 95 1008.0
20260507140006 69 275 0.0 0.0 0.00 0.12 0.12 95 1008.3
20260507135503 69 310 0.0 0.0 0.00 0.12 0.12 95 1008.3
20260507135000 69 252 0.0 0.0 0.00 0.12 0.12 95 1008.5
20260507134456 69 141 0.0 0.9 0.00 0.12 0.12 95 1008.2
20260507133952 69 315 0.0 0.0 0.00 0.12 0.12 95 1008.5
20260507133448 68 309 0.0 0.0 0.00 0.12 0.12 95 1008.4
20260507132947 68 269 0.0 0.0 0.00 0.12 0.12 95 1008.5
20260507132442 68 239 0.0 0.0 0.00 0.12 0.12 95 1008.4
20260507131939 68 216 0.0 0.9 0.00 0.12 0.12 95 1008.4
20260507131437 68 198 0.9 0.9 0.00 0.12 0.12 95 1008.4
20260507130934 68 193 0.0 0.0 0.00 0.12 0.12 95 1008.5
20260507130431 68 239 0.0 0.0 0.00 0.12 0.12 95 1009.0
20260507125929 68 207 0.0 0.0 0.00 0.12 0.12 95 1008.7
20260507125427 68 188 0.9 0.9 0.00 0.12 0.12 95 1008.7
20260507124924 68 193 0.9 0.9 0.07 0.12 0.12 95 1008.7
20260507124420 68 4 0.0 0.0 0.07 0.12 0.12 95 1008.8
20260507123919 68 213 0.0 0.0 0.00 0.11 0.11 95 1008.8
20260507123418 68 192 0.0 0.0 0.00 0.11 0.11 95 1008.9
20260507122912 68 122 0.0 0.0 0.00 0.11 0.11 95 1009.1
20260507122407 68 189 0.0 0.9 0.00 0.11 0.11 95 1009.2
20260507121904 68 221 0.0 0.0 0.00 0.11 0.11 95 1009.0
20260507121359 67 213 0.0 0.0 0.00 0.11 0.11 95 1009.2
20260507120856 67 193 0.9 0.9 0.00 0.11 0.11 95 1009.2
20260507120352 67 198 0.0 0.0 0.00 0.11 0.11 95 1009.3
20260507115848 67 237 0.0 0.0 0.00 0.11 0.11 95 1009.4
20260507115344 67 294 0.0 0.0 0.00 0.11 0.11 95 1009.4
20260507114840 67 237 0.0 0.0 0.00 0.11 0.11 95 1009.5
20260507114337 67 178 0.0 0.9 0.00 0.11 0.11 95 1009.2
20260507113835 67 204 0.0 0.0 0.00 0.11 0.11 95 1009.3
20260507113332 67 231 0.9 0.9 0.00 0.11 0.11 95 1009.4
20260507112829 67 178 0.0 0.0 0.05 0.11 0.11 95 1009.3
20260507112326 67 253 0.0 0.0 0.05 0.11 0.11 95 1009.4
20260507111824 67 247 0.0 0.9 0.00 0.10 0.10 95 1009.1
20260507111320 67 329 0.0 0.0 0.00 0.10 0.10 95 1009.4
20260507110816 67 339 0.0 0.0 0.00 0.10 0.10 95 1009.4
20260507110313 67 277 0.0 0.0 0.00 0.10 0.10 95 1009.1
20260507105810 67 203 1.7 1.7 0.00 0.10 0.10 95 1008.9
20260507105307 67 315 0.0 0.9 0.07 0.10 0.10 95 1009.2
20260507104803 67 190 0.0 0.0 0.07 0.10 0.10 95 1009.4
20260507104259 67 278 0.0 0.9 0.05 0.09 0.09 95 1009.6
20260507103756 67 156 1.7 2.6 0.12 0.09 0.09 95 1009.1
20260507103252 67 158 0.0 0.9 0.07 0.08 0.08 95 1008.9
20260507102748 67 249 0.0 0.0 0.00 0.07 0.07 95 1008.9
20260507102245 67 158 0.0 0.0 0.00 0.07 0.07 95 1008.9
20260507101741 67 282 0.0 0.0 0.00 0.07 0.07 95 1009.1
20260507101231 67 269 0.0 0.0 0.00 0.07 0.07 95 1009.0
20260507100728 67 228 0.0 0.0 0.00 0.07 0.07 95 1008.9
20260507100227 67 326 0.0 0.0 0.00 0.07 0.07 94 1009.0
20260507095724 66 277 0.0 0.0 0.00 0.07 0.07 94 1008.9
20260507095220 66 301 0.0 0.0 0.00 0.07 0.07 94 1008.8
20260507094717 66 221 0.0 0.9 0.00 0.07 0.07 94 1008.9
20260507094215 66 269 0.0 0.0 0.00 0.07 0.07 94 1008.8
20260507093711 66 299 0.0 0.0 0.00 0.07 0.07 94 1008.7
20260507093210 66 212 0.0 0.0 0.00 0.07 0.07 94 1008.8
20260507092707 66 196 0.0 0.0 0.00 0.07 0.07 94 1008.8
20260507092203 66 224 0.0 0.0 0.00 0.07 0.07 94 1009.0
20260507091659 66 227 0.0 0.0 0.00 0.07 0.07 94 1009.0
20260507091156 66 268 0.0 0.0 0.00 0.07 0.07 94 1009.0
20260507090652 67 266 0.0 0.0 0.00 0.07 0.07 94 1008.8
20260507090149 67 264 0.0 0.0 0.00 0.07 0.07 94 1008.8
20260507085646 67 202 0.0 0.0 0.00 0.07 0.07 94 1008.8
20260507085142 67 186 0.0 0.9 0.00 0.07 0.07 94 1008.5
20260507084640 67 193 0.0 0.0 0.00 0.07 0.07 94 1008.8
20260507084136 67 45 0.0 0.0 0.00 0.07 0.07 93 1009.0
20260507083633 67 330 0.0 0.0 0.00 0.07 0.07 93 1009.1
20260507083130 67 299 0.0 0.0 0.00 0.07 0.07 93 1009.1
20260507082625 67 290 0.0 0.0 0.00 0.07 0.07 93 1009.4
20260507082122 67 53 0.0 0.0 0.00 0.07 0.07 93 1009.5
20260507081619 67 260 0.0 0.0 0.00 0.07 0.07 93 1009.5
20260507081115 67 8 0.0 0.0 0.00 0.07 0.07 93 1009.8
20260507080612 67 255 0.9 1.7 0.00 0.07 0.07 93 1009.8
20260507080108 67 199 0.9 0.9 0.05 0.07 0.07 93 1010.1
20260507075603 67 277 0.0 0.0 0.05 0.07 0.07 93 1009.9
20260507075100 67 288 0.9 0.9 0.00 0.06 0.06 92 1009.8
20260507074557 67 278 0.9 0.9 0.00 0.06 0.06 92 1009.9
20260507074055 67 216 0.9 0.9 0.07 0.06 0.06 92 1009.4
20260507073550 67 196 0.9 1.7 0.07 0.06 0.06 92 1009.5
20260507073047 67 305 0.9 0.9 0.00 0.05 0.05 91 1009.8
20260507072545 67 297 0.0 0.0 0.00 0.05 0.05 90 1009.6
20260507072042 68 336 0.9 0.9 0.00 0.05 0.05 89 1009.5
20260507071539 68 141 0.9 1.7 0.05 0.05 0.05 89 1009.3
20260507071036 68 247 0.9 1.7 0.12 0.05 0.05 88 1009.3
20260507070533 68 233 0.0 0.9 0.12 0.04 0.04 88 1009.4
20260507070030 68 209 0.9 1.7 0.17 0.03 0.03 87 1009.4
20260507065526 69 159 2.6 4.3 0.12 0.02 0.02 86 1009.6
20260507065023 69 175 2.6 4.3 0.00 0.00 0.00 85 1010.0
20260507064521 69 233 0.0 0.0 0.00 0.00 0.00 85 1010.1
20260507064020 69 193 0.9 0.9 0.00 0.00 0.00 85 1010.2
20260507063516 69 191 0.0 0.0 0.00 0.00 0.00 86 1010.2
20260507063014 69 206 0.0 0.9 0.00 0.00 0.00 86 1010.0
20260507062510 69 173 0.0 0.9 0.00 0.00 0.00 86 1010.1
20260507062008 69 195 0.0 0.0 0.00 0.00 0.00 87 1010.4
20260507061505 69 240 0.0 0.0 0.00 0.00 0.00 87 1010.5
20260507061004 69 271 0.0 0.0 0.00 0.00 0.00 87 1010.6
20260507060501 69 248 0.0 0.0 0.00 0.00 0.00 86 1010.7
20260507055956 69 250 0.0 0.0 0.00 0.00 0.00 86 1010.5
20260507055452 69 249 0.0 0.0 0.00 0.00 0.00 85 1010.5
20260507054949 69 259 0.0 0.0 0.00 0.00 0.00 85 1010.6
20260507054445 69 327 0.0 0.0 0.00 0.00 0.00 85 1010.5
20260507053942 69 271 0.0 0.0 0.00 0.00 0.00 84 1010.5
20260507053440 69 292 0.0 0.0 0.00 0.00 0.00 84 1010.5
20260507052938 69 288 0.0 0.0 0.00 0.00 0.00 84 1010.5
20260507052436 69 185 0.0 0.0 0.00 0.00 0.00 84 1010.5
20260507051932 69 231 0.0 0.0 0.00 0.00 0.00 83 1010.5
20260507051430 69 182 0.0 0.0 0.00 0.00 0.00 83 1010.3
20260507050927 69 172 0.9 0.9 0.00 0.00 0.00 83 1010.5
20260507050423 69 199 0.0 0.0 0.00 0.00 0.00 83 1010.7
20260507045920 70 209 0.0 0.0 0.00 0.00 0.00 83 1010.6
20260507045416 69 88 0.0 0.0 0.00 0.00 0.00 83 1010.6
20260507044914 69 226 0.0 0.0 0.00 0.00 0.00 83 1010.6
20260507044410 69 228 0.0 0.0 0.00 0.00 0.00 83 1010.5
20260507043907 69 229 0.0 0.0 0.00 0.00 0.00 83 1010.4
20260507043403 69 213 0.0 0.0 0.00 0.00 0.00 83 1010.6
20260507042900 69 233 0.0 0.0 0.00 0.00 0.00 82 1010.5
20260507042356 69 234 0.0 0.0 0.00 0.00 0.00 82 1010.1
20260507041852 69 230 0.0 0.0 0.00 0.00 0.00 82 1010.6
20260507041349 69 224 0.0 0.0 0.00 0.00 0.00 82 1010.6
20260507040847 69 209 0.0 0.0 0.00 0.00 0.00 82 1010.6
20260507040342 69 203 0.0 0.0 0.00 0.00 0.00 82 1010.6
20260507035838 69 232 0.0 0.0 0.00 0.00 0.00 81 1010.3
20260507035334 69 225 0.0 0.9 0.00 0.00 0.00 82 1010.5
20260507034832 69 236 0.0 0.0 0.00 0.00 0.00 81 1010.9
20260507034328 69 239 0.0 0.0 0.00 0.00 0.00 80 1010.7
20260507033826 69 248 0.0 0.0 0.00 0.00 0.00 79 1010.8
20260507033324 70 256 0.0 0.0 0.00 0.00 0.00 80 1010.6
20260507032821 70 169 0.0 0.0 0.00 0.00 0.00 81 1010.6
20260507032317 70 211 0.0 0.9 0.00 0.00 0.00 81 1010.7
20260507031814 70 206 0.0 0.9 0.00 0.00 0.00 80 1010.8
20260507031311 70 217 0.0 0.0 0.00 0.00 0.00 80 1010.8
20260507030807 70 198 0.9 1.7 0.00 0.00 0.00 80 1010.8
20260507030305 70 218 0.0 0.9 0.00 0.00 0.00 80 1010.6
20260507025801 69 209 0.0 0.0 0.00 0.00 0.00 80 1010.5
20260507025259 69 258 0.0 0.0 0.00 0.00 0.00 77 1010.7
20260507024757 70 260 0.0 0.0 0.00 0.00 0.00 76 1010.9
20260507024254 70 227 0.0 0.0 0.00 0.00 0.00 78 1010.5
20260507023749 71 264 0.0 0.0 0.00 0.00 0.00 76 1010.4
20260507023246 71 247 0.0 0.9 0.00 0.00 0.00 76 1010.3
20260507022743 71 203 0.9 0.9 0.00 0.00 0.00 76 1010.6
20260507022239 71 214 1.7 1.7 0.00 0.00 0.00 76 1010.8
20260507021736 71 230 0.9 0.9 0.00 0.00 0.00 76 1010.6
20260507021231 71 193 0.9 0.9 0.00 0.00 0.00 76 1010.5
20260507020730 71 178 1.7 1.7 0.00 0.00 0.00 76 1010.6
20260507020226 71 172 0.0 0.0 0.00 0.00 0.00 76 1010.6
20260507015724 71 217 0.0 0.9 0.00 0.00 0.00 75 1010.3
20260507015221 71 176 0.0 0.9 0.00 0.00 0.00 75 1010.5
20260507014717 71 181 1.7 1.7 0.00 0.00 0.00 75 1010.7
20260507014214 71 176 0.0 0.0 0.00 0.00 0.00 75 1010.6
20260507013710 72 225 1.7 1.7 0.00 0.00 0.00 73 1010.7
20260507013208 72 212 0.9 1.7 0.00 0.00 0.00 73 1010.6
20260507012705 72 149 0.9 1.7 0.00 0.00 0.00 72 1010.6
20260507012201 72 207 0.9 0.9 0.00 0.00 0.00 72 1010.6
20260507011659 72 177 3.5 4.3 0.00 0.00 0.00 72 1010.7
20260507011155 72 216 1.7 1.7 0.00 0.00 0.00 71 1010.7
20260507010654 72 237 0.9 0.9 0.00 0.00 0.00 71 1010.4
20260507010150 72 205 2.6 4.3 0.00 0.00 0.00 70 1010.7
20260507005648 72 201 0.9 0.9 0.00 0.00 0.00 70 1010.6
20260507005144 73 220 0.9 0.9 0.00 0.00 0.00 71 1010.5
20260507004641 73 224 1.7 1.7 0.00 0.00 0.00 70 1010.4
20260507004139 73 220 1.7 2.6 0.00 0.00 0.00 69 1010.3
20260507003635 73 190 1.7 1.7 0.00 0.00 0.00 69 1010.2
20260507003130 74 206 1.7 2.6 0.00 0.00 0.00 69 1010.4
20260507002626 74 198 0.9 1.7 0.00 0.00 0.00 68 1010.3
20260507002122 74 205 0.9 1.7 0.00 0.00 0.00 68 1010.2
20260507001619 74 221 1.7 1.7 0.00 0.00 0.00 68 1010.2
20260507001117 74 195 4.3 6.1 0.00 0.00 0.00 70 1010.1
20260507000613 74 183 0.9 1.7 0.00 0.00 0.00 71 1009.9
20260507000108 74 212 3.5 6.1 0.00 0.00 0.00 71 1009.8
20260506235606 74 194 4.3 5.2 0.00 0.00 0.00 70 1010.0
20260506235106 75 237 1.7 2.6 0.00 0.00 0.00 70 1009.9
20260506234604 75 237 3.5 6.1 0.00 0.00 0.00 70 1009.9
20260506234101 75 211 2.6 2.6 0.00 0.00 0.00 71 1009.9
20260506233558 75 225 2.6 5.2 0.00 0.00 0.00 72 1009.9
20260506233054 75 198 2.6 4.3 0.00 0.00 0.00 71 1009.9
20260506232550 75 215 2.6 2.6 0.00 0.00 0.00 73 1009.6
20260506232046 75 185 2.6 5.2 0.00 0.00 0.00 73 1009.8
20260506231544 75 215 4.3 6.1 0.00 0.00 0.00 72 1009.5
20260506231042 76 227 1.7 1.7 0.00 0.00 0.00 73 1009.8
20260506230538 75 229 2.6 4.3 0.00 0.00 0.00 74 1009.6
20260506230035 75 201 2.6 2.6 0.00 0.00 0.00 74 1009.5
20260506225532 76 181 5.2 7.0 0.00 0.00 0.00 73 1009.3
20260506225028 75 192 4.3 6.1 0.00 0.00 0.00 74 1009.3
20260506224525 74 216 3.5 4.3 0.00 0.00 0.00 77 1009.4
20260506224022 74 179 2.6 2.6 0.00 0.00 0.00 78 1009.4
20260506223517 75 160 0.9 0.9 0.00 0.00 0.00 77 1009.4
20260506223014 75 169 3.5 4.3 0.00 0.00 0.00 75 1009.5
20260506222511 75 219 0.9 1.7 0.00 0.00 0.00 76 1009.3
20260506222008 76 207 0.9 1.7 0.00 0.00 0.00 76 1009.5
20260506221505 75 206 0.9 0.9 0.00 0.00 0.00 75 1009.4
20260506221003 75 250 0.9 1.7 0.00 0.00 0.00 75 1009.4
20260506220458 75 199 0.9 0.9 0.00 0.00 0.00 76 1009.6
20260506215954 75 189 3.5 4.3 0.00 0.00 0.00 76 1009.5
20260506215451 75 195 0.9 1.7 0.00 0.00 0.00 77 1009.6
20260506214947 75 222 0.9 0.9 0.00 0.00 0.00 76 1009.5
20260506214444 76 211 2.6 2.6 0.00 0.00 0.00 73 1009.4
20260506213942 76 164 1.7 4.3 0.00 0.00 0.00 74 1010.0
20260506213439 76 210 0.9 0.9 0.00 0.00 0.00 73 1009.7
20260506212936 75 208 3.5 4.3 0.00 0.00 0.00 72 1010.0
20260506212432 76 168 0.9 0.9 0.00 0.00 0.00 73 1010.1
20260506211932 77 218 0.9 0.9 0.00 0.00 0.00 69 1009.8
20260506211428 77 199 0.9 1.7 0.00 0.00 0.00 69 1009.2